| time (UTC) | temp F | wind direction | speed knots | gust knots | rain 1hr in | rain 24hr in | rain mn in | humidity % | barometer mb |
| 20260503203711 | 73 | 334 | 2.6 | 10.4 | 0.00 | 0.00 | 0.00 | 35 | 1009.3 |
| 20260503201710 | 73 | 67 | 1.7 | 6.1 | 0.00 | 0.00 | 0.00 | 30 | 1009.5 |
| 20260503200711 | 73 | 317 | 4.3 | 7.8 | 0.00 | 0.00 | 0.00 | 33 | 1009.7 |
| 20260503195711 | 74 | 288 | 2.6 | 10.4 | 0.00 | 0.00 | 0.00 | 35 | 1009.9 |
| 20260503192710 | 74 | 306 | 5.2 | 11.3 | 0.00 | 0.00 | 0.00 | 34 | 1010.2 |
| 20260503191711 | 73 | 80 | 3.5 | 7.8 | 0.00 | 0.00 | 0.00 | 33 | 1010.2 |
| 20260503190710 | 73 | 53 | 3.5 | 8.7 | 0.00 | 0.00 | 0.00 | 33 | 1010.5 |
| 20260503185710 | 73 | 13 | 4.3 | 8.7 | 0.00 | 0.00 | 0.00 | 33 | 1010.6 |
| 20260503184710 | 73 | 32 | 8.7 | 11.3 | 0.00 | 0.00 | 0.00 | 38 | 1010.7 |
| 20260503183711 | 72 | 292 | 6.1 | 12.2 | 0.00 | 0.00 | 0.00 | 33 | 1010.8 |
| 20260503182710 | 73 | 301 | 6.1 | 10.4 | 0.00 | 0.00 | 0.00 | 32 | 1010.8 |
| 20260503181710 | 72 | 17 | 4.3 | 10.4 | 0.00 | 0.00 | 0.00 | 37 | 1010.9 |
| 20260503180710 | 72 | 57 | 1.7 | 10.4 | 0.00 | 0.00 | 0.00 | 33 | 1011.1 |
| 20260503175711 | 72 | 30 | 6.1 | 11.3 | 0.00 | 0.00 | 0.00 | 35 | 1011.3 |
| 20260503174710 | 71 | 292 | 1.7 | 8.7 | 0.00 | 0.00 | 0.00 | 35 | 1011.5 |
| 20260503172711 | 70 | 333 | 4.3 | 10.4 | 0.00 | 0.00 | 0.00 | 38 | 1011.6 |
| 20260503171710 | 71 | 46 | 5.2 | 10.4 | 0.00 | 0.00 | 0.00 | 36 | 1011.6 |
| 20260503170710 | 70 | 16 | 2.6 | 8.7 | 0.00 | 0.00 | 0.00 | 39 | 1011.7 |
| 20260503150711 | 66 | 49 | 5.2 | 10.4 | 0.00 | 0.00 | 0.00 | 42 | 1012.2 |
| 20260503110710 | 50 | 278 | 0.9 | 2.6 | 0.00 | 0.00 | 0.00 | 63 | 1010.3 |
| 20260503080711 | 55 | 217 | 8.7 | 13.9 | 0.00 | 0.00 | 0.00 | 44 | 1010.3 |
| 20260503072710 | 55 | 220 | 8.7 | 13.9 | 0.00 | 0.00 | 0.00 | 43 | 1010.6 |
| 20260503070710 | 56 | 215 | 8.7 | 17.4 | 0.00 | 0.00 | 0.00 | 41 | 1010.9 |
| 20260503054710 | 58 | 213 | 9.6 | 14.8 | 0.00 | 0.00 | 0.00 | 38 | 1011.1 |
| 20260503053710 | 59 | 153 | 9.6 | 14.8 | 0.00 | 0.00 | 0.00 | 37 | 1011.1 |
| 20260503052710 | 59 | 183 | 7.8 | 21.7 | 0.00 | 0.00 | 0.00 | 37 | 1011.2 |
| 20260503051711 | 59 | 212 | 9.6 | 15.6 | 0.00 | 0.00 | 0.00 | 36 | 1011.3 |
| 20260503050711 | 59 | 185 | 13.0 | 20.0 | 0.00 | 0.00 | 0.00 | 36 | 1011.2 |
| 20260503045710 | 60 | 184 | 10.4 | 17.4 | 0.00 | 0.00 | 0.00 | 36 | 1011.4 |
| 20260503044710 | 60 | 196 | 9.6 | 18.2 | 0.00 | 0.00 | 0.00 | 36 | 1011.4 |
| 20260503043710 | 59 | 199 | 7.0 | 14.8 | 0.00 | 0.00 | 0.00 | 36 | 1011.5 |
| 20260503041710 | 59 | 194 | 8.7 | 15.6 | 0.00 | 0.00 | 0.00 | 35 | 1011.5 |
| 20260503040711 | 59 | 190 | 8.7 | 13.0 | 0.00 | 0.00 | 0.00 | 36 | 1011.7 |
| 20260503034710 | 60 | 191 | 7.8 | 14.8 | 0.00 | 0.00 | 0.00 | 36 | 1012.1 |
| 20260503033711 | 60 | 178 | 7.8 | 12.2 | 0.00 | 0.00 | 0.00 | 35 | 1012.1 |
| 20260503032710 | 60 | 225 | 8.7 | 12.2 | 0.00 | 0.00 | 0.00 | 36 | 1012.2 |
| 20260503031711 | 60 | 186 | 7.0 | 11.3 | 0.00 | 0.00 | 0.00 | 35 | 1012.3 |
| 20260503030710 | 60 | 182 | 6.1 | 12.2 | 0.00 | 0.00 | 0.00 | 36 | 1012.6 |
| 20260503025711 | 61 | 184 | 6.1 | 13.0 | 0.00 | 0.00 | 0.00 | 36 | 1012.7 |
| 20260503024710 | 61 | 192 | 6.1 | 12.2 | 0.00 | 0.00 | 0.00 | 36 | 1012.8 |
| 20260503023710 | 61 | 176 | 4.3 | 7.8 | 0.00 | 0.00 | 0.00 | 36 | 1012.8 |
| 20260503022710 | 62 | 186 | 5.2 | 7.8 | 0.00 | 0.00 | 0.00 | 35 | 1012.7 |
| 20260503021711 | 62 | 190 | 4.3 | 7.8 | 0.00 | 0.00 | 0.00 | 35 | 1012.8 |
| 20260503020711 | 62 | 190 | 3.5 | 7.0 | 0.00 | 0.00 | 0.00 | 34 | 1012.8 |
| 20260503015710 | 63 | 193 | 4.3 | 7.0 | 0.00 | 0.00 | 0.00 | 34 | 1012.9 |
| 20260503014710 | 63 | 199 | 4.3 | 7.0 | 0.00 | 0.00 | 0.00 | 34 | 1013.0 |
| 20260503013710 | 64 | 195 | 5.2 | 7.0 | 0.00 | 0.00 | 0.00 | 34 | 1013.1 |
| 20260503012710 | 65 | 197 | 4.3 | 7.8 | 0.00 | 0.00 | 0.00 | 32 | 1013.2 |
| 20260503011710 | 66 | 187 | 2.6 | 5.2 | 0.00 | 0.00 | 0.00 | 31 | 1013.3 |
| 20260503010711 | 67 | 178 | 2.6 | 6.1 | 0.00 | 0.00 | 0.00 | 30 | 1013.6 |
| 20260503005710 | 68 | 207 | 4.3 | 6.1 | 0.00 | 0.00 | 0.00 | 28 | 1013.7 |
| 20260503004711 | 69 | 224 | 6.1 | 7.8 | 0.00 | 0.00 | 0.00 | 27 | 1013.9 |
| 20260503003710 | 69 | 218 | 6.1 | 13.9 | 0.00 | 0.00 | 0.00 | 27 | 1013.9 |
| 20260503002710 | 69 | 226 | 7.8 | 10.4 | 0.00 | 0.00 | 0.00 | 26 | 1014.1 |
| 20260503001710 | 69 | 226 | 7.0 | 12.2 | 0.00 | 0.00 | 0.00 | 26 | 1014.3 |
| 20260502234710 | 70 | 255 | 7.0 | 14.8 | 0.00 | 0.00 | 0.00 | 25 | 1014.6 |
| 20260502233711 | 70 | 216 | 8.7 | 20.0 | 0.00 | 0.00 | 0.00 | 25 | 1014.8 |
| 20260502232711 | 70 | 219 | 9.6 | 13.0 | 0.00 | 0.00 | 0.00 | 24 | 1014.9 |
| 20260502231710 | 70 | 243 | 7.8 | 15.6 | 0.00 | 0.00 | 0.00 | 25 | 1015.0 |
| 20260502230710 | 70 | 221 | 12.2 | 20.9 | 0.00 | 0.00 | 0.00 | 24 | 1015.1 |
| 20260502225710 | 70 | 189 | 9.6 | 15.6 | 0.00 | 0.00 | 0.00 | 25 | 1015.0 |
| 20260502224710 | 70 | 232 | 8.7 | 14.8 | 0.00 | 0.00 | 0.00 | 27 | 1015.2 |
| 20260502223710 | 70 | 249 | 6.1 | 15.6 | 0.00 | 0.00 | 0.00 | 27 | 1015.3 |
| 20260502222711 | 70 | 254 | 7.8 | 13.9 | 0.00 | 0.00 | 0.00 | 28 | 1015.5 |
| 20260502221710 | 70 | 236 | 6.1 | 10.4 | 0.00 | 0.00 | 0.00 | 27 | 1015.6 |
| 20260502220711 | 70 | 275 | 7.0 | 10.4 | 0.00 | 0.00 | 0.00 | 26 | 1015.8 |
| 20260502214711 | 69 | 229 | 7.8 | 13.9 | 0.00 | 0.00 | 0.00 | 25 | 1016.3 |
| 20260502213710 | 69 | 222 | 5.2 | 12.2 | 0.00 | 0.00 | 0.00 | 26 | 1016.3 |
| 20260502212710 | 69 | 267 | 8.7 | 17.4 | 0.00 | 0.00 | 0.00 | 26 | 1016.6 |
| 20260502211711 | 69 | 249 | 5.2 | 12.2 | 0.00 | 0.00 | 0.00 | 27 | 1016.8 |
| 20260502210710 | 69 | 250 | 2.6 | 10.4 | 0.00 | 0.00 | 0.00 | 32 | 1017.1 |